Regional Weather Roundup
Issued by NWS Charleston, SC

Current Version | Previous Version | Text Only | Print | Product List | Glossary On
Versions: 1 2 3 4 5 6 7 8 9 10 11 12 13 14 15 16 17 18 19 20 21 22 23 24 25 26 27 28 29 30 31 32 33 34 35 36 37 38 39 40 41 42 43 44 45 46 47 48 49 50
000
ASUS42 KCHS 240927
RWRCHS

REGIONAL WEATHER ROUNDUP
NATIONAL WEATHER SERVICE CHARLESTON SC
500 AM EDT SUN MAY 24 2015

NOTE: "FAIR" INDICATES FEW OR NO CLOUDS BELOW 12,000 FEET WITH NO
SIGNIFICANT WEATHER AND/OR OBSTRUCTIONS TO VISIBILITY.

NOT ALL STATIONS ARE QUALITY CONTROLLED BY THE NATIONAL
WEATHER SERVICE. USE DATA WITH CAUTION...ESPECIALLY
DEWPOINT OBSERVATIONS.

SCZ027-030-031-034>040-042>050-241000-
...SOUTHEAST SOUTH CAROLINA...

CITY           SKY/WX    TMP DP  RH WIND       PRES   REMARKS
N CHARLESTON   CLEAR     61  58  90 NE6       30.33R
WATERFRONT PAR   N/A     74  61  63 E15       30.29R
MOUNT PLEASANT FAIR      68  59  73 E5        30.33S
JOHNS ISLAND   MOSUNNY   72  59  64 E7        30.34R
PINOPOLIS      NOT AVBL
MONCKS CORNER  FAIR      59  55  88 CALM      30.34S
SUMMERVILLE    FAIR      59  59 100 CALM      30.35R
BEAUFORT MCAS  CLEAR     71  61  70 E6        30.32R
BEAUFORT ARPT  FAIR      68  61  77 CALM      30.31S
HILTON HEAD IS PTCLDY    73  61  64 NE5       30.32S
WALTERBORO     SUNNY     59  57  94 NE5       30.34S
ALLENDALE      FAIR      63  59  88 CALM      30.33R

...SOUTHERN MIDLANDS AND PEE DEE...

CITY           SKY/WX    TMP DP  RH WIND       PRES   REMARKS
GEORGETOWN     NOT AVBL
KINGSTREE      NOT AVBL
ORANGEBURG     CLEAR     61  58  90 E3        30.35R
BARNWELL       FAIR      63  59  88 NE5       30.35R
AIKEN          FAIR      55  54  94 CALM      30.38S
MANNING        FAIR      55  50  82 CALM      30.36R
COLUMBIA       CLEAR     58  52  80 CALM      30.35R
SUMTER         CLEAR     58  55  90 NE5       30.34R
FLORENCE       CLEAR     59  56  89 NE3       30.37R
MYRTLE BEACH   CLEAR     72  55  56 E7        30.37S
N MYRTLE BEACH PTCLDY    73  55  53 SE8       30.35R

$$

GAZ063-065-086>088-099>101-113>116-118-119-134>141-150-241000-
...SOUTHEAST GEORGIA...

CITY           SKY/WX    TMP DP  RH WIND       PRES   REMARKS
SAVANNAH ARPT  CLEAR     65  60  84 NE5       30.30R
HUNTER AAF       N/A    N/A N/A N/A MISG        N/A
FORT STEWART   MOCLDY    65  62  89 CALM      30.27R
STATESBORO     CLEAR     62  62 100 CALM      30.32R
SYLVANIA       PTSUNNY   65  63  93 E3        30.33R
CLAXTON        FAIR      61  61 100 CALM      30.31R

...CSRA...CENTRAL AND FAR SOUTHEAST GEORGIA...

CITY           SKY/WX    TMP DP  RH WIND       PRES   REMARKS
THOMSON        CLEAR     59  59  99 CALM      30.38S
AUGUSTA-BUSH   CLEAR     57  55  93 CALM      30.34R
AUGUSTA-DANIEL CLEAR     66  58  75 E6        30.35R
SWAINSBORO     PTSUNNY   66  66 100 E6        30.32S
VIDALIA        MOCLDY    68  63  83 E6        30.30S
EASTMAN        PTSUNNY   66  66 100 E5        30.32S
HAZLEHURST     FAIR      68  65  88 E3        30.29R
ALMA           PTCLDY    66  63  90 CALM      30.28S
WAYCROSS       CLEAR     66  66 100 CALM      30.28R
JESUP          FAIR      66  64  94 E3        30.29R
BAXLEY         FAIR      68  64  88 NE3       30.29R
BRUNSWICK      CLEAR     73  63  68 E6        30.29R
SAINT SIMONS   NOT AVBL

$$

SCZ027-028-034-036>038-045-046-048>050-GAZ119-141-241000-
...LAKE AND SUPPLEMENTAL COASTAL OBSERVATIONS...

STATION/POSITION TIME  TEMP    WIND        PRES    WAVE   SWELL
                       AIR SEA DIR/SP/G            HT/PER HT/PER/DIR
                 (UTC) (F)     (DEG/KT/KT) (MB)    (FT/S) (FT/S/D)
UPR LAKE MARION  NOT AVBL
WINYAH BAY       0800   73     110/  9     1026.0
LAKE MURRAY      0800   67     100/  5/  9 1027.1R
ACE BASIN NERRS  NOT AVBL
FORT PULASKI     0900   74 78   90/ 13/ 16 1026.5R
SAPELO ISLAND    0900   74     100/  6     1025.0S

$$

ANZ835-935-AMZ111-154-330-350-352-354-370-450-454-472-241000-
...C-MAN AND BUOY OBSERVATIONS...

STATION/POSITION TIME  TEMP    WIND        PRES    WAVE   SWELL
                       AIR SEA DIR/SP/G            HT/PER HT/PER/DIR
                 (UTC) (F)     (DEG/KT/KT) (MB)    (FT/S) (FT/S/D)
BUOY 41004       0850   74 75  100/ 16/ 17 1026.0R   5/ 7   2/ 8
BUOY 41008       0850   75 74  100/ 14/ 16 1025.2R   5/ 6   3/ 80/ 6
FOLLY BEACH CMAN 0900   74     110/ 13/ 15 1027.0R
CAPERS NEARSHORE 0808   74     120/ 16/ 19 1026.8R
FRIPP NEARSHORE  NOT AVBL


STATION/POSITION TIME  TEMP    WIND        PRES    WAVE   SWELL
                       AIR SEA DIR/SP/G            HT/PER HT/PER/DIR
                 (UTC) (F)     (DEG/KT/KT) (MB)    (FT/S) (FT/S/D)
5E ST. MARYS GA  0821      77                N/A     5/ 6
FRYING PAN BUOY  0850   75 73  110/ 16/ 19 1028.0R   4/ 6   2/110/ 8
BUOY 41025       0850   72 77  100/  4/  6 1028.8R   3/ 6   2/ 50/ 6
CAPE LOOKOUT NC  0900   72     120/  6/  6 1028.4R
BUOY 41002       0850   72 74   80/ 19/ 23 1026.4R   6/ 7
BUOY 41010       0820   78 80   70/ 16/ 17 1022.6S
ST AUGUSTINE FL  0900   76 76   90/ 14/ 16 1024.7R


$$


USA.gov is the U.S. government's official web portal to all federal, state and local government web resources and services.